Flag for Spain Weather past 2 weeks in Almería, Spain

Now
81 °F

Warm.


Feels Like: 83 °F
Forecast: 62 / 80 °F
Wind: 22 mph from Southwest

Location: Almeria / Aeropuerto

Current Time: Sep 3, 2015 at 5:11:12 PM

Latest Report: Sep 3, 2015 at 4:00 PM


Visibility: N/A

Pressure: 29.86 "Hg

Humidity: 57%

Dew point: 64 °F

Location of AlmeríaLocation

Historic Weather in Almería — Graph

°F

Almería temperature yesterday

Maximum temperature yesterday: 86 °F (at 5:00 PM)
Minimum temperature yesterday: 71 °F (at 8:00 AM)
Average temperature yesterday: 79 °F

Past Weeks' High & Low Weather Summary

 TemperatureHumidityPressure
High96 °F (Aug 21, 4:00 PM)87% (Sep 1, 6:00 AM)30.13 "Hg (Sep 1, 6:00 AM)
Low67 °F (Aug 24, 7:00 AM)22% (Aug 21, 4:00 PM)29.78 "Hg (Aug 23, 7:00 PM)
Average81 °F64%29.97 "Hg
* Reported Aug 19 3:00 PM — Sep 3 3:00 PM, Almería, Weather by CustomWeather, © 2015

Note: Actual official high and low records may vary slightly from our data, if they occured in-between our weather recording intervals... More about our weather records

Advertising

Almería weather history for previous 24 hours

 ConditionsComfort  
Time TempWeatherWind HumidityBarometerVisibility
3:00 PM
Thu, Sep 3
80 °FWarm.24 mph60%29.88 "HgN/A
2:00 PM80 °FScattered clouds.24 mph62%29.89 "Hg12 mi
1:00 PM80 °FWarm.22 mph58%29.90 "HgN/A
12:00 PM79 °FWarm.23 mph61%29.90 "HgN/A
11:00 AM77 °FPassing clouds.21 mph68%29.90 "Hg12 mi
10:00 AM76 °FMild.16 mph71%29.90 "HgN/A
9:00 AM74 °FMild.17 mph76%29.90 "HgN/A
8:00 AM74 °FPassing clouds.12 mph75%29.88 "Hg16 mi
7:00 AM71 °FMild.No wind68%29.87 "HgN/A
6:00 AM71 °FMild.1 mph69%29.87 "HgN/A
5:00 AM72 °FClear.2 mph67%29.87 "Hg19 mi
4:00 AM73 °FMild.14 mph70%29.89 "HgN/A
3:00 AM74 °FMild.15 mph74%29.89 "HgN/A
2:00 AM75 °FMild.14 mph69%29.90 "HgN/A
1:00 AM75 °FMild.15 mph67%29.90 "HgN/A
12:00 AM76 °FMild.10 mph59%29.89 "HgN/A
10:00 PM
Wed, Sep 2
77 °FMild.16 mph65%29.88 "HgN/A
9:00 PM77 °FWarm.17 mph59%29.87 "HgN/A
8:00 PM80 °FPassing clouds.14 mph53%29.87 "Hg28 mi
7:00 PM82 °FWarm.18 mph52%29.87 "HgN/A
6:00 PM84 °FWarm.21 mph54%29.86 "HgN/A
5:00 PM86 °FPassing clouds.12 mph46%29.88 "Hg28 mi
Weather by CustomWeather, © 2015

See weather overviewHow to use our weather pages